Weather History for Mobile, AL

Change the Weather History Date:

Saturday, July 28, 2012

  Actual Average Record
Temperature  
Mean Temperature 82 °F 82 °F  
Max Temperature 90 °F 91 °F 100 °F (1968)
Min Temperature 73 °F 73 °F 67 °F (1994)
Cooling Degree Days 17 17  
Month to date cooling degree days 470 474  
Year to date cooling degree days 1627 1363  
Since 1 June cooling degree days 921 918  
Growing Degree Days 32 (Base 50)    
Moisture  
Dew Point 73 °F    
Average Humidity 79    
Maximum Humidity 94    
Minimum Humidity 63    
Precipitation  
Precipitation 0.04 in 0.24 in 1.53 in (1950)
Month to date precipitation 6.09 6.53  
Year to date precipitation 46.10 39.48  
Sea Level Pressure  
Sea Level Pressure 30.06 in    
Wind  
Wind Speed 3 mph (West)    
Max Wind Speed 3 mph    
Max Gust Speed 5 mph    
Visibility 9 miles    
Events Rain , Thunderstorm    
T = Trace of Precipitation, MM = Missing Value Source: NWS Daily Summary

Daily Weather History Graph

Daily Weather History Graph

Search for Another Location

Airport:

Trip Planner

Search our weather history database for the weather conditions in past years. The results will help you decide how hot, cold, wet, or windy it might be!

Date:

Astronomy

Jul. 28, 2012 Rise Set
Actual Time 6:08 AM CDT 7:49 PM CDT
Civil Twilight 5:42 AM CDT 8:16 PM CDT
Nautical Twilight 5:10 AM CDT 8:47 PM CDT
Astronomical Twilight 4:37 AM CDT 9:21 PM CDT
Moon 3:50 PM CDT (7/28) 1:30 AM CDT (7/28)
Length of Visible Light 14h 34m
Length of Day
13h 41m
Waxing Gibbous, 76% of the Moon is Illuminated
Jul 28
Waxing Gibbous
Aug 1
Full
Aug 9
Last Quarter
Aug 17
New
Aug 24
First Quarter

Hourly Weather History & Observations

Time (CDT) Temp. Heat Index Dew Point Humidity Pressure Visibility Wind Dir Wind Speed Gust Speed Precip Events Conditions
12:56 AM 75.9 °F - 73.0 °F 91% 30.05 in 10.0 mi Calm Calm - N/A   Scattered Clouds
1:56 AM 75.9 °F - 72.0 °F 87% 30.04 in 10.0 mi Calm Calm - N/A   Partly Cloudy
2:56 AM 75.0 °F - 72.0 °F 90% 30.03 in 10.0 mi WSW 4.6 mph - N/A   Partly Cloudy
3:56 AM 75.0 °F - 72.0 °F 90% 30.04 in 10.0 mi WSW 3.5 mph - N/A   Partly Cloudy
4:56 AM 75.0 °F - 72.0 °F 90% 30.06 in 10.0 mi West 4.6 mph - N/A   Partly Cloudy
5:56 AM 75.0 °F - 73.0 °F 94% 30.07 in 9.0 mi West 3.5 mph - 0.02 in   Partly Cloudy
6:56 AM 75.0 °F - 73.0 °F 94% 30.09 in 8.0 mi Calm Calm - N/A   Scattered Clouds
7:56 AM 78.1 °F - 75.0 °F 90% 30.09 in 10.0 mi West 4.6 mph - N/A   Partly Cloudy
8:56 AM 81.0 °F 86.7 °F 75.0 °F 82% 30.09 in 10.0 mi Variable 5.8 mph - N/A   Scattered Clouds
9:56 AM 82.0 °F 87.9 °F 73.9 °F 76% 30.09 in 10.0 mi NW 5.8 mph - N/A   Scattered Clouds
10:56 AM 86.0 °F 96.0 °F 75.9 °F 72% 30.11 in 10.0 mi West 5.8 mph - N/A   Scattered Clouds
11:56 AM 88.0 °F 98.5 °F 75.9 °F 67% 30.10 in 10.0 mi West 5.8 mph - N/A   Mostly Cloudy
12:09 PM 86.0 °F 93.4 °F 73.4 °F 66% 30.10 in 10.0 mi Variable 4.6 mph - N/A Thunderstorm Thunderstorm
12:49 PM 87.8 °F 97.6 °F 75.2 °F 66% 30.08 in 10.0 mi WNW 3.5 mph - N/A   Mostly Cloudy
12:56 PM 88.0 °F 96.5 °F 73.9 °F 63% 30.07 in 10.0 mi NNW 4.6 mph - N/A   Mostly Cloudy
1:32 PM 87.8 °F 97.6 °F 75.2 °F 66% 30.07 in 10.0 mi ENE 5.8 mph - N/A Thunderstorm Thunderstorm
1:56 PM 84.9 °F 93.3 °F 75.0 °F 72% 30.06 in 10.0 mi SE 4.6 mph - N/A Thunderstorm Thunderstorm
2:12 PM 80.6 °F 86.2 °F 75.2 °F 84% 30.07 in 2.0 mi South 11.5 mph - 0.00 in Rain , Thunderstorm Light Thunderstorms and Rain
2:23 PM 80.6 °F 86.2 °F 75.2 °F 84% 30.08 in 3.0 mi SSW 8.1 mph - 0.00 in Rain , Thunderstorm Light Thunderstorms and Rain
2:42 PM 73.4 °F - 69.8 °F 88% 30.10 in 3.0 mi WNW 11.5 mph 20.7 mph 0.00 in Rain , Thunderstorm Light Thunderstorms and Rain
2:56 PM 73.9 °F - 68.0 °F 82% 30.09 in 3.0 mi NW 5.8 mph 16.1 mph 0.00 in Rain , Thunderstorm Light Thunderstorms and Rain
3:03 PM 73.4 °F - 66.2 °F 78% 30.08 in 10.0 mi North 8.1 mph - N/A Thunderstorm Thunderstorm
3:56 PM 75.0 °F - 69.1 °F 82% 30.05 in 10.0 mi Calm Calm - 0.00 in Thunderstorm Thunderstorm
4:04 PM 75.2 °F - 69.8 °F 83% 30.05 in 10.0 mi West 4.6 mph - N/A   Mostly Cloudy
4:56 PM 75.9 °F - 71.1 °F 85% 30.04 in 10.0 mi Calm Calm - N/A   Overcast
5:56 PM 79.0 °F - 71.1 °F 77% 30.03 in 10.0 mi Calm Calm - 0.01 in   Mostly Cloudy
6:56 PM 79.0 °F - 73.0 °F 82% 30.02 in 10.0 mi Calm Calm - N/A   Mostly Cloudy
7:56 PM 79.0 °F - 73.0 °F 82% 30.02 in 10.0 mi South 3.5 mph - 0.01 in   Mostly Cloudy
8:56 PM 78.1 °F - 73.9 °F 87% 30.03 in 10.0 mi Calm Calm - N/A   Mostly Cloudy
9:56 PM 75.9 °F - 73.9 °F 94% 30.04 in 10.0 mi Calm Calm - N/A   Mostly Cloudy
10:56 PM 75.0 °F - 73.0 °F 94% 30.05 in 8.0 mi Calm Calm - N/A   Scattered Clouds
11:56 PM 78.1 °F - 73.9 °F 87% 30.05 in 10.0 mi WSW 3.5 mph - N/A   Partly Cloudy